Location: ??????????
(54.4061°N, 22.6114°E)
Time: 05:28:21
(UTC+00:00)

Cosmos 2227 Rocket - Pass Details

Date: 23 October 2019
Orbit: 838 x 846 km, 71.0° (Epoch: 12 November)

Event Time Altitude Azimuth Distance (km) Brightness Sun altitude
Rises 17:23:24 0° 316° (NW) 3,419 6.2 -19.4°
Reaches altitude 10° 17:26:47 10° 336° (NNW) 2,483 5.0 -19.9°
Maximum altitude 17:30:27 17° 16° (NNE) 2,021 4.1 -20.4°
Enters shadow 17:32:14 15° 38° (NE) 2,138 4.0 -20.7°
